Showing default

HAWK-2A, 47505

Orbit data source: Space-Track

HAWK-2A, 47505 is a payload satellite owned by HawkEye 360 (US) in SSO that was launched on Sun, 24 Jan 2021 UTC via an FALCON 9 launch vehicle from the Air Force Eastern Test Range (AFETR). Payload-class satellites include a variety of spacecraft equipped with specific instruments for various scientific and technological missions. These include communications satellites like Starlink; space stations such as the ISS; scientific satellites like the Hubble; Earth observation satellites from companies like Planet Labs, Umbra, and HawkEye 360; GPS; miniature CubeSats for education and research; and military/defense satellites.

Loading next visibility...
Identifier
47505, 2021-006CW
Orbit
SSO
Country
Flag of USUS
Related business
Manufacturer
UTIAS-SFL
Mission
Operational Commercial Sigint
Bus & Motor
DEFIANT, Unknown motor
Mass
31 kg wet, 30 kg dry
Launch date (UTC)
2021-01-24 (5 years ago)
Launch vehicle
FALCON 9
Launch site
Air Force Eastern Test Range (AFETR)
Object type
Payload
Rocket body
Debris
Shape & HBR
Box + 2 Pan, 0.5 m
Radar Cross Section
0.348 m², Medium (>0.1 m² and < 1m²)

Expand to show TLE details & history
Last TLE update: 11 hours ago

TLE from 11 hours ago
0 HAWK-2A
1 47505U 21006CW  25261.06612070  .00006035  00000-0  21217-3 0  9998
2 47505  97.2755 306.5312 0009159  98.0009 262.2272 15.29688672257829
Epoch: 2025-09-18T01:35Z
TLE epoch observation values (Epoch: 2025-09-18T01:35:12.828Z)
Latitude
0.00004°
Longitude
-74.50531°
Altitude
480.704 km
Speed
7.625 km/s
True Right ascension
20h 26m 07s
True Declination
0° 00' 00"
Sunlit
Object was in full shadow at epoch
Visualization orbit readout
Latitude
Unknown
Longitude
Unknown
Altitude
Unknown
Speed
Unknown
Apparent Right ascension
Unknown
Apparent Declination
Unknown
Sunlit
N/A
Visualization observer readout
Local Sidereal Time
05:28:41
Azimuth
Unknown
Elevation
Unknown
Doppler factor
Unknown
Orbital elements
Apogee altitude
479.965 km
Perigee altitude
467.414 km
Semi-major axis
6,851.827 km
Eccentricity
0.00092
Inclination
97.2755°
RAAN
306.5312°
Arg. of periapsis
98.0009°
True anomaly
262.12323°
Mean anomaly
262.2272°
Eccentric anomaly
262.17521°
Mean motion
3.82678 °/min
Orbital period
94.07 mins
BSTAR
0.00021217
Loading maneuver chart data...
Computing Atmospheric mass density...

Documentation

Showing up to 5 results
|